DL4LAM-15 Weather Reports


time (UTC)temp
F
wind
direction
speed
knots
gust
knots
rain 1hr
in
rain 24hr
in
rain mn
in
humidity
%
barometer
mb
20260502183017 75 0.0 0.0 0.00 0.00 0.00 48 1013.8
20260502182517 76 0.0 0.0 0.00 0.00 0.00 47 1013.7
20260502182017 76 0.0 0.0 0.00 0.00 0.00 47 1013.8
20260502181517 76 0.0 0.0 0.00 0.00 0.00 47 1013.8
20260502181017 77 0.0 0.0 0.00 0.00 0.00 45 1013.8
20260502180518 77 0.0 0.0 0.00 0.00 0.00 45 1013.8
20260502170517 79 0.0 0.9 0.00 0.00 0.00 40 1013.9
20260502164017 79 0.0 2.6 0.00 0.00 0.00 38 1014.2
20260502163517 80 0.0 2.6 0.00 0.00 0.00 38 1014.3
20260502163017 80 0.0 1.7 0.00 0.00 0.00 39 1014.3
20260502162517 80 0.0 0.9 0.00 0.00 0.00 38 1014.4
20260502162017 80 0.0 0.9 0.00 0.00 0.00 38 1014.5
20260502161517 80 0.0 1.7 0.00 0.00 0.00 38 1014.5
20260502161017 80 0.0 1.7 0.00 0.00 0.00 37 1014.6
20260502160517 80 0.0 0.0 0.00 0.00 0.00 38 1014.7
20260502151517 81 0.0 0.9 0.00 0.00 0.00 35 1015.0
20260502151017 81 0.0 1.7 0.00 0.00 0.00 35 1015.0
20260502150517 81 0.0 2.6 0.00 0.00 0.00 34 1015.1
20260502130517 86 0.0 1.7 0.00 0.00 0.00 29 1016.4
20260502123517 85 0.0 1.7 0.00 0.00 0.00 27 1016.7
20260502123017 85 0.0 3.5 0.00 0.00 0.00 28 1016.8
20260502122517 84 0.0 1.7 0.00 0.00 0.00 28 1016.8
20260502121017 84 0.0 2.6 0.00 0.00 0.00 30 1016.9
20260502120517 84 113 0.9 4.3 0.00 0.00 0.00 28 1017.1
20260502115517 84 0.0 2.6 0.00 0.00 0.00 28 1017.4
20260502114517 83 135 1.7 7.8 0.00 0.00 0.00 29 1017.3
20260502114037 83 203 0.9 2.6 0.00 0.00 0.00 30 1017.3
20260502113017 83 113 0.9 4.3 0.00 0.00 0.00 30 1017.5
20260502112517 83 0.0 4.3 0.00 0.00 0.00 30 1017.6
20260502112017 82 0.0 0.9 0.00 0.00 0.00 31 1017.6
20260502111517 81 0.0 2.6 0.00 0.00 0.00 33 1017.7
20260502111017 80 0.0 4.3 0.00 0.00 0.00 32 1017.9
20260502110517 80 113 0.9 7.0 0.00 0.00 0.00 33 1017.9
20260502105517 79 113 1.7 6.1 0.00 0.00 0.00 33 1018.0
20260502105018 79 113 1.7 5.2 0.00 0.00 0.00 33 1018.0
20260502104517 79 90 2.6 7.0 0.00 0.00 0.00 33 1018.0
20260502104017 79 158 1.7 7.0 0.00 0.00 0.00 33 1018.1
20260502103518 79 90 1.7 7.0 0.00 0.00 0.00 33 1018.0
20260502103017 79 68 0.9 6.1 0.00 0.00 0.00 34 1018.1
20260502102517 79 90 2.6 7.8 0.00 0.00 0.00 33 1018.1
20260502102017 79 90 2.6 7.8 0.00 0.00 0.00 34 1018.2
20260502101517 79 113 1.7 7.8 0.00 0.00 0.00 33 1018.3
20260502101017 79 248 0.9 5.2 0.00 0.00 0.00 33 1018.3
20260502100517 79 113 0.9 6.1 0.00 0.00 0.00 32 1018.5
20260502091517 77 135 0.9 3.5 0.00 0.00 0.00 36 1019.2
20260502091017 76 0.0 1.7 0.00 0.00 0.00 37 1019.2
20260502090517 76 113 0.9 6.1 0.00 0.00 0.00 38 1019.2
20260502071517 68 158 0.9 2.6 0.00 0.00 0.00 50 1019.7
20260502071017 67 135 1.7 6.1 0.00 0.00 0.00 51 1019.8
20260502070517 67 45 0.9 2.6 0.00 0.00 0.00 53 1019.9
20260502070017 66 90 0.9 5.2 0.00 0.00 0.00 54 1019.9
20260502065517 66 90 1.7 7.0 0.00 0.00 0.00 54 1020.0
20260502065016 65 90 2.6 7.8 0.00 0.00 0.00 54 1020.0
20260502064517 65 90 1.7 6.1 0.00 0.00 0.00 56 1020.1
20260502064017 65 68 0.9 4.3 0.00 0.00 0.00 57 1020.0
20260502062517 63 68 1.7 7.0 0.00 0.00 0.00 58 1020.1
20260502062016 63 68 0.9 3.5 0.00 0.00 0.00 58 1020.1
20260502061517 63 90 0.9 6.1 0.00 0.00 0.00 59 1020.2
20260502061017 62 0.0 2.6 0.00 0.00 0.00 60 1020.2
20260502060517 61 113 0.9 4.3 0.00 0.00 0.00 61 1020.3
20260502060016 61 90 1.7 4.3 0.00 0.00 0.00 61 1020.3
20260502055517 61 90 0.9 4.3 0.00 0.00 0.00 62 1020.3
20260502055017 60 113 0.9 4.3 0.00 0.00 0.00 63 1020.3
20260502053518 59 90 0.9 4.3 0.00 0.00 0.00 64 1020.3
20260502053017 59 90 0.9 5.2 0.00 0.00 0.00 65 1020.4
20260502052016 58 113 0.9 3.5 0.00 0.00 0.00 65 1020.3
20260502051516 58 90 0.9 4.3 0.00 0.00 0.00 66 1020.4
20260502051017 58 68 0.9 3.5 0.00 0.00 0.00 66 1020.4
20260502050517 58 113 0.9 3.5 0.00 0.00 0.00 66 1020.4
20260502050017 57 90 0.9 4.3 0.00 0.00 0.00 67 1020.5
20260502045516 57 158 0.9 4.3 0.00 0.00 0.00 67 1020.5
20260502044517 56 68 0.9 2.6 0.00 0.00 0.00 68 1020.5
20260502044017 56 0.0 2.6 0.00 0.00 0.00 69 1020.5
20260502043517 55 68 0.9 4.3 0.00 0.00 0.00 70 1020.5
20260502043016 55 135 0.9 4.3 0.00 0.00 0.00 71 1020.5
20260502042017 54 90 0.9 4.3 0.00 0.00 0.00 72 1020.5
20260502041516 54 90 0.9 4.3 0.00 0.00 0.00 72 1020.5
20260502041017 54 90 0.9 2.6 0.00 0.00 0.00 72 1020.5
20260502040517 54 90 0.9 2.6 0.00 0.00 0.00 72 1020.5
20260502040016 54 90 0.9 2.6 0.00 0.00 0.00 73 1020.5
20260502035517 54 90 0.9 2.6 0.00 0.00 0.00 73 1020.6
20260502035016 54 90 0.9 4.3 0.00 0.00 0.00 73 1020.5
20260502034517 54 0.0 2.6 0.00 0.00 0.00 72 1020.6
20260502034017 54 90 0.9 4.3 0.00 0.00 0.00 72 1020.7
20260502033016 54 0.0 1.7 0.00 0.00 0.00 73 1020.8
20260502032516 54 0.0 1.7 0.00 0.00 0.00 73 1020.8
20260502032016 54 0.0 2.6 0.00 0.00 0.00 73 1020.8
20260502031517 54 0.0 1.7 0.00 0.00 0.00 73 1020.9
20260502031017 53 0.0 0.9 0.00 0.00 0.00 74 1021.0
20260502030516 53 0.0 0.0 0.00 0.00 0.00 75 1021.0
20260502025517 53 0.0 0.9 0.00 0.00 0.00 75 1021.0
20260502025017 53 0.0 1.7 0.00 0.00 0.00 76 1021.1
20260502024516 53 0.0 0.0 0.00 0.00 0.00 76 1021.1
20260502023516 52 0.0 0.0 0.00 0.00 0.00 77 1021.2
20260502023017 52 0.0 0.9 0.00 0.00 0.00 78 1021.2
20260502022017 52 0.0 0.9 0.00 0.00 0.00 79 1021.3
20260502021517 52 0.0 0.0 0.00 0.00 0.00 79 1021.3
20260502021016 52 0.0 0.0 0.00 0.00 0.00 79 1021.4
20260502020516 52 0.0 0.0 0.00 0.00 0.00 80 1021.4
20260502020017 52 0.0 0.9 0.00 0.00 0.00 80 1021.4
20260502015516 52 0.0 0.9 0.00 0.00 0.00 80 1021.4
20260502015016 52 0.0 0.0 0.00 0.00 0.00 81 1021.4
20260502014517 52 0.0 0.9 0.00 0.00 0.00 81 1021.5
20260502014016 52 0.0 0.0 0.00 0.00 0.00 81 1021.5
20260502013516 53 0.0 0.0 0.00 0.00 0.00 80 1021.6
20260502013016 53 0.0 0.0 0.00 0.00 0.00 80 1021.7
20260502012516 53 0.0 0.0 0.00 0.00 0.00 80 1021.7
20260502012016 53 0.0 0.0 0.00 0.00 0.00 79 1021.8
20260502011516 53 0.0 0.0 0.00 0.00 0.00 79 1021.9
20260502011016 54 0.0 0.0 0.00 0.00 0.00 79 1021.9
20260502010516 54 0.0 0.0 0.00 0.00 0.00 80 1021.9
20260502010016 54 0.0 0.0 0.00 0.00 0.00 80 1022.0
20260502005516 54 0.0 0.0 0.00 0.00 0.00 80 1022.1
20260502005016 54 0.0 0.0 0.00 0.00 0.00 81 1022.0
20260502004516 55 0.0 0.0 0.00 0.00 0.00 80 1022.1
20260502004018 55 0.0 0.0 0.00 0.00 0.00 79 1022.2
20260502003516 55 0.0 0.0 0.00 0.00 0.00 78 1022.3
20260502003016 55 0.0 0.0 0.00 0.00 0.00 77 1022.2
20260502002516 55 0.0 0.0 0.00 0.00 0.00 77 1022.3
20260502002016 55 0.0 0.9 0.00 0.00 0.00 76 1022.3
20260502001516 55 0.0 0.0 0.00 0.00 0.00 76 1022.3
20260502001016 55 0.0 1.7 0.00 0.00 0.00 76 1022.3
20260502000516 55 0.0 0.9 0.00 0.00 0.00 79 1022.4
20260502000016 54 0.0 0.9 0.00 0.00 0.00 81 1022.4
20260501234016 54 0.0 0.0 0.00 0.00 0.00 79 1022.5
20260501233516 54 0.0 0.0 0.00 0.00 0.00 78 1022.6
20260501233016 55 0.0 0.0 0.00 0.00 0.00 77 1022.6
20260501232516 55 0.0 0.0 0.00 0.00 0.00 77 1022.7
20260501232016 55 0.0 0.0 0.00 0.00 0.00 76 1022.7
20260501231516 55 0.0 0.0 0.00 0.00 0.00 75 1022.7
20260501231017 55 0.0 0.0 0.00 0.00 0.00 74 1022.7
20260501230516 56 0.0 0.0 0.00 0.00 0.00 74 1022.7
20260501230016 56 0.0 0.0 0.00 0.00 0.00 73 1022.8
20260501225016 56 0.0 0.0 0.00 0.00 0.00 71 1022.8
20260501224016 57 0.0 0.0 0.00 0.00 0.00 70 1022.9
20260501223516 57 0.0 0.0 0.00 0.00 0.00 69 1022.9
20260501223016 57 0.0 0.0 0.00 0.00 0.00 69 1022.9
20260501222516 57 0.0 0.0 0.00 0.00 0.00 69 1022.9
20260501222016 58 0.0 0.0 0.00 0.00 0.00 68 1022.9
20260501221516 58 0.0 0.0 0.00 0.00 0.00 68 1022.9
20260501221016 58 0.0 0.0 0.00 0.00 0.00 68 1022.9
20260501220516 58 0.0 0.0 0.00 0.00 0.00 67 1022.9
20260501220016 59 0.0 0.0 0.00 0.00 0.00 68 1022.9
20260501215517 59 0.0 0.0 0.00 0.00 0.00 67 1022.9
20260501215017 59 0.0 0.9 0.00 0.00 0.00 66 1022.9
20260501214517 59 0.0 0.9 0.00 0.00 0.00 67 1022.9
20260501214017 59 0.0 0.0 0.00 0.00 0.00 68 1022.9
20260501213517 59 0.0 0.0 0.00 0.00 0.00 67 1022.8
20260501212517 59 0.0 0.0 0.00 0.00 0.00 68 1022.8
20260501212018 59 0.0 0.0 0.00 0.00 0.00 68 1022.9
20260501211517 59 0.0 0.0 0.00 0.00 0.00 67 1022.9
20260501211037 60 0.0 0.0 0.00 0.00 0.00 67 1022.9
20260501210017 60 0.0 0.0 0.00 0.00 0.00 65 1022.9
20260501205517 61 0.0 0.0 0.00 0.00 0.00 62 1022.9
20260501205018 61 0.0 0.0 0.00 0.00 0.00 60 1023.0
20260501204517 61 0.0 0.0 0.00 0.00 0.00 59 1022.9
20260501204022 62 0.0 0.0 0.00 0.00 0.00 59 1023.0
20260501203517 62 0.0 0.0 0.00 0.00 0.00 58 1023.0
20260501203017 62 0.0 0.0 0.00 0.00 0.00 56 1023.0
20260501202518 63 0.0 0.0 0.00 0.00 0.00 56 1023.1
20260501202017 63 0.0 0.0 0.00 0.00 0.00 55 1023.1
20260501201517 64 0.0 0.0 0.00 0.00 0.00 54 1023.1
20260501201017 64 0.0 0.0 0.00 0.00 0.00 53 1023.2
20260501200517 64 0.0 0.0 0.00 0.00 0.00 53 1023.2
20260501200017 65 0.0 0.0 0.00 0.00 0.00 52 1023.1
20260501195522 65 0.0 0.0 0.00 0.00 0.00 52 1023.2
20260501195017 65 0.0 0.9 0.00 0.00 0.00 52 1023.2
20260501194517 65 0.0 1.7 0.00 0.00 0.00 51 1023.2
20260501194018 66 0.0 1.7 0.00 0.00 0.00 51 1023.2
20260501193517 66 90 0.9 2.6 0.00 0.00 0.00 51 1023.1
20260501193017 66 0.0 2.6 0.00 0.00 0.00 51 1023.2
20260501192517 66 0.0 1.7 0.00 0.00 0.00 51 1023.2
20260501192017 67 68 0.9 2.6 0.00 0.00 0.00 50 1023.2
20260501191517 67 68 0.9 4.3 0.00 0.00 0.00 50 1023.2
20260501191038 67 68 0.9 3.5 0.00 0.00 0.00 50 1023.1
20260501190017 68 90 1.7 4.3 0.00 0.00 0.00 49 1023.1
20260501185517 68 68 1.7 6.1 0.00 0.00 0.00 49 1023.1
20260501185017 68 113 0.9 4.3 0.00 0.00 0.00 48 1023.1
20260501184517 69 113 0.9 3.5 0.00 0.00 0.00 48 1023.1
20260501184017 69 68 0.9 4.3 0.00 0.00 0.00 47 1023.1
20260501183517 69 90 1.7 5.2 0.00 0.00 0.00 46 1023.1